#timestamp,LO_Frequency,Hit,StdDev 
1605895215.3,286047000.7,N
1605895235.1,286047000.8,N
1605895255.9,286047001.2,N
1605895275.7,286047000.7,N
1605895295.5,286046998.5,N
1605895315.4,286047001.1,N
1605895335.2,286046998.7,N
1605895355.0,286047000.9,N
1605895355.9,286047000.9,N
1605895375.8,286046999.4,N
1605895395.6,286046999.1,N
1605895415.4,286046999.1,N
1605895435.3,286046999.3,N
1605895455.1,286046999.3,N
1605895456.0,286046999.3,N
1605895475.8,286046999.1,N
1605895495.7,286046996.7,Y
1605895515.5,286046999.6,P
1605895535.3,286046997.3,P
1605895555.2,286046996.5,N
1605895575.9,286046996.9,N
1605895595.7,286046999.5,N
1605895615.6,286046999.0,N
1605895635.4,286046996.9,N
1605895655.2,286046999.6,N
1605895675.1,286046999.1,N
1605895676.0,286046999.1,N
1605895695.8,286046995.1,Y
1605895715.6,286046999.6,P
1605895735.5,286046996.8,P
1605895755.3,286046996.6,N
1605895775.1,286046996.9,N
1605895795.9,286046996.8,N
1605895815.7,286046999.4,N
1605895835.5,286046999.3,N
1605895855.4,286046998.8,N
1605895875.2,286046996.6,N
1605895895.0,286046997.4,N
1605895895.9,286046997.4,N
1605895915.8,286046997.1,N
1605895935.6,286046998.0,N
1605895955.4,286046997.0,N
1605895975.3,286046997.7,N
1605895995.1,286046996.7,Y
1605895996.0,286046996.7,P
1605896015.8,286046998.2,P
1605896035.7,286047000.7,N
1605896055.5,286046998.2,N
1605896075.3,286046999.3,N
1605896095.2,286046998.3,N
1605896115.9,286047001.1,N
1605896135.7,286047000.9,N
1605896155.6,286047000.9,N
1605896175.4,286047000.7,N
1605896195.2,286047000.2,N
1605896215.1,286047000.8,N
1605896216.0,286047000.8,N
1605896235.8,286047000.7,N
1605896255.6,286046998.4,N
1605896275.5,286046998.1,N
1605896295.3,286047000.6,N
1605896315.1,286047002.3,N
1605896335.9,286047000.0,N
1605896355.7,286046999.7,N
1605896375.5,286047002.4,N
1605896395.4,286047002.4,N
1605896415.2,286046999.8,N
1605896435.0,286047000.2,N
1605896435.9,286047000.2,N
1605896455.8,286047000.6,N
1605896475.6,286047000.3,N
1605896495.4,286047001.0,N
1605896515.3,286047002.8,N
1605896535.1,286047000.3,N
1605896536.0,286047000.3,N
1605896555.8,286047000.5,N
1605896575.7,286047001.1,N
1605896595.5,286047000.9,N
1605896615.3,286047000.3,N
1605896635.2,286047002.8,N
1605896655.9,286047000.4,N
1605896675.7,286047000.9,N
1605896695.6,286047000.4,N
1605896715.4,286047002.8,N
1605896735.2,286047002.4,N
1605896755.1,286047002.8,N
1605896756.0,286047002.8,N
1605896775.8,286047002.8,N
1605896795.6,286047002.5,N
1605896815.5,286047002.3,N
1605896835.3,286046999.9,N
1605896855.1,286047000.0,N
1605896875.9,286047000.9,N
1605896895.7,286047000.9,N
1605896915.5,286047000.5,N
1605896935.4,286047001.0,N
1605896955.2,286047000.4,N
1605896975.0,286046999.9,N
1605896975.9,286046999.9,N
1605896995.8,286047000.1,N
1605897015.6,286047002.0,N
1605897035.4,286047001.6,N
1605897055.3,286047000.2,N
1605897075.1,286046999.8,N
1605897076.0,286046999.8,N
1605897095.8,286047000.3,N
1605897115.7,286046999.7,N
1605897135.5,286047002.7,N
1605897155.3,286046999.7,N
1605897175.2,286046999.9,N
1605897195.9,286047000.9,N
1605897215.7,286047000.2,N
1605897235.6,286046999.8,N
1605897255.4,286047001.0,N
1605897275.2,286046999.7,N
1605897295.1,286047000.9,N
1605897296.0,286047000.9,N
1605897315.8,286046998.6,N
1605897335.6,286046998.7,N
1605897355.5,286046998.7,N
1605897375.3,286046998.3,N
1605897395.1,286046998.3,N
1605897415.9,286046998.6,N
1605897435.7,286046998.5,N
1605897455.5,286046999.3,N
1605897475.3,286046999.0,N
1605897495.2,286046998.4,N
1605897515.0,286046998.2,N
1605897515.9,286046998.2,N
1605897535.8,286046998.8,N
1605897555.6,286046998.4,N
1605897575.4,286046998.6,N
1605897595.3,286046998.9,N
1605897615.1,286046998.2,N
1605897616.0,286046998.2,N
1605897635.8,286047000.7,N
1605897655.7,286046999.2,N
1605897675.5,286046999.3,N
1605897695.3,286046997.4,N
1605897715.2,286046998.8,N
1605897735.9,286046998.9,N
1605897755.7,286046998.4,N
1605897775.6,286046996.7,Y
1605897795.4,286046999.3,P
1605897815.2,286046998.7,P
1605897835.1,286047001.1,P
1605897836.0,286047001.1,N
1605897855.8,286046998.7,N
1605897875.6,286046999.4,N
1605897895.5,286046999.4,N
1605897915.3,286046998.6,N
1605897935.1,286046996.5,Y
1605897955.9,286047000.8,P
1605897975.7,286046999.4,N
1605897995.5,286046997.0,P
1605898015.4,286046997.8,N
1605898035.2,286046997.3,N
1605898055.0,286046996.7,N
1605898055.9,286046996.7,N
1605898075.8,286046997.3,N
1605898095.6,286046997.1,N
1605898115.4,286046999.3,N
1605898135.3,286046999.1,N
1605898155.1,286046999.0,N
1605898156.0,286046999.0,N
1605898175.8,286046998.8,N
1605898195.7,286046999.5,N
1605898215.5,286046997.7,N
1605898235.3,286046997.2,N
1605898255.2,286046995.2,Y
1605898275.9,286046998.4,P
1605898295.7,286046998.6,P
1605898315.6,286046999.0,P
1605898335.4,286046998.6,Y
1605898355.2,286047000.4,P
1605898375.1,286047000.9,N
1605898376.0,286047000.9,N
1605898395.8,286047000.7,N
1605898415.6,286047000.9,N
1605898435.5,286047000.4,N
1605898455.3,286046998.7,N
1605898475.1,286046998.8,N
1605898495.9,286046998.6,N
1605898515.7,286046998.8,N
1605898535.5,286046998.5,N
1605898555.4,286046996.6,Y
1605898575.2,286046996.9,P
1605898595.0,286046996.5,N
1605898595.9,286046996.5,N
1605898615.8,286046996.5,N
1605898635.6,286046997.3,N
1605898655.4,286046996.9,N
1605898675.3,286046999.6,N
1605898695.1,286046999.2,N
1605898696.0,286046999.2,N
1605898715.8,286046997.3,N
1605898735.7,286046999.6,N
1605898755.5,286046999.4,N
1605898775.3,286046999.1,N
1605898795.2,286046999.6,N
